Location: Ballingbuur
(53.0000°N, 5.7667°E)
Time: 18:31:39
(UTC+00:00)

ATLAS 5 CENTAUR R/B - Visible Passes

Search period start: 16 April 2021 00:00
Search period end: 26 April 2021 00:00
Orbit: 516 x 1142 km, 63.3° (Epoch: 15 April)

Date Brightness Start Highest point End Pass type
(mag) Time Alt. Az. Time Alt. Az. Time Alt. Az.
16 Apr 2.3 01:33:16 10° NW 01:38:34 77° NE 01:44:55 10° SE visible
16 Apr 3.0 03:18:09 10° WNW 03:23:02 31° WSW 03:28:36 10° S visible
16 Apr 2.6 19:58:10 10° WSW 20:02:15 49° NNW 20:06:58 10° NE visible
16 Apr 4.0 21:44:05 10° WNW 21:47:55 26° N 21:52:18 10° NE visible
16 Apr 3.7 23:29:28 10° NW 23:33:54 31° NNE 23:39:02 10° E visible
17 Apr 2.3 01:13:58 10° NW 01:19:15 75° NE 01:25:34 10° SE visible
17 Apr 3.0 02:58:49 10° WNW 03:03:45 32° WSW 03:09:25 10° S visible
17 Apr 2.6 19:38:50 10° WSW 19:42:55 51° NNW 19:47:39 10° NE visible
17 Apr 3.9 21:24:44 10° WNW 21:28:34 26° N 21:32:57 10° NE visible
17 Apr 3.8 23:10:09 10° NW 23:14:32 31° NNE 23:19:39 10° E visible
18 Apr 2.4 00:54:40 10° NW 00:59:56 72° NE 01:06:13 10° SE visible
18 Apr 2.9 02:39:27 10° WNW 02:44:28 34° WSW 02:50:12 10° S visible
18 Apr 2.5 19:19:30 10° WSW 19:23:35 53° NNW 19:28:20 10° NE visible
18 Apr 3.9 21:05:23 10° WNW 21:09:12 26° N 21:13:35 10° NE visible
18 Apr 3.8 22:50:50 10° NW 22:55:11 30° NNE 23:00:14 10° ENE visible
19 Apr 2.4 00:35:22 10° NW 00:40:36 69° NE 00:46:52 10° ESE visible
19 Apr 2.8 02:20:07 10° WNW 02:25:10 36° WSW 02:30:59 10° S visible
19 Apr 3.9 20:46:01 10° WNW 20:49:51 26° N 20:54:14 10° NE visible
19 Apr 3.8 22:31:31 10° NW 22:35:50 30° NNE 22:40:50 10° ENE visible
20 Apr 2.5 00:16:04 10° NW 00:21:17 66° NE 00:27:31 10° ESE visible
20 Apr 2.8 02:00:47 10° WNW 02:05:52 37° WSW 02:09:47 19° S visible
20 Apr 3.8 20:26:39 10° WNW 20:30:29 27° N 20:34:52 10° NE visible
20 Apr 3.8 22:12:11 10° NW 22:16:28 29° NNE 22:21:26 10° ENE visible
20 Apr 2.5 23:56:45 10° NW 00:01:57 64° NE 00:06:58 16° ESE visible
21 Apr 2.7 01:41:26 10° WNW 01:46:35 39° SW 01:48:22 32° SSW visible
21 Apr 3.8 20:07:17 10° WNW 20:11:07 27° N 20:15:31 10° NE visible
21 Apr 3.8 21:52:51 10° NW 21:57:07 29° NNE 22:02:02 10° ENE visible
21 Apr 2.6 23:37:27 10° NW 23:42:37 61° NE 23:46:48 20° ESE visible
22 Apr 2.7 01:22:06 10° WNW 01:27:17 41° SW 01:28:15 39° SSW visible
22 Apr 3.8 19:47:55 10° WNW 19:51:45 27° NNW 19:56:09 10° NE visible
22 Apr 3.8 21:33:32 10° NW 21:37:45 28° NNE 21:42:37 10° ENE visible
22 Apr 2.6 23:18:08 10° NW 23:23:17 59° NE 23:27:07 23° ESE visible
23 Apr 2.6 01:02:46 10° NW 01:07:59 43° SW 01:08:35 42° SW visible
23 Apr 3.7 19:28:33 10° WNW 19:32:24 28° NNW 19:36:48 10° NE visible
23 Apr 3.8 21:14:12 10° NW 21:18:24 28° NNE 21:23:14 10° ENE visible
23 Apr 2.7 22:58:50 10° NW 23:03:58 57° NE 23:07:40 23° ESE visible
24 Apr 2.6 00:43:26 10° NW 00:48:41 45° SW 00:49:08 45° SW visible
24 Apr 3.8 20:54:52 10° NW 20:59:02 27° NNE 21:03:49 10° ENE visible
24 Apr 2.7 22:39:32 10° NW 22:44:38 55° NE 22:48:21 22° ESE visible
25 Apr 2.5 00:24:07 10° NW 00:29:22 48° SW 00:29:51 47° SW visible
25 Apr 3.8 20:35:32 10° NW 20:39:40 27° N 20:44:25 10° ENE visible
25 Apr 2.8 22:20:14 10° NW 22:25:18 53° NE 22:29:10 21° ESE visible
